Station Historical Data
Daily Summary for September 25, 2017 Units:  English    Metric   Both
Next Day »
Daily Weekly Monthly Yearly Custom
  High: Low: Average:
Temperature: 74.0 °F 56.2 °F 63.8 °F
Dew Point: 42.5 °F 31.8 °F 36.4 °F
Humidity: 46% 26% 37%
Wind Speed: 12.0mph 0.0mph 1.9mph
Wind Gust: 18.0mph - -
Wind- - SSE
Pressure: 29.98 in 29.88 in -
Precipitation: 0.00 in    
Historical Graphs
 
 
Tabular Data for September 25, 2017
Time Temperature Dew Point Pressure Wind Wind Speed Wind Gust Humidity Rainfall Rate (Hourly) solar Conditions
00:01 56.8 °F 34.6 °F 29.96 in East 6.0 mph 12.0 mph 43% 0.00 in 0.00 W/m2
00:06 56.8 °F 34.6 °F 29.96 in East 2.0 mph 11.0 mph 43% 0.00 in 0.00 W/m2
00:11 56.9 °F 34.1 °F 29.97 in Calm   13.0 mph 42% 0.00 in 0.00 W/m2
00:16 57.0 °F 34.2 °F 29.97 in Calm     42% 0.00 in 0.00 W/m2
00:21 57.1 °F 33.6 °F 29.97 in Calm     41% 0.00 in 0.00 W/m2
00:26 57.2 °F 33.7 °F 29.96 in East 5.0 mph 5.0 mph 41% 0.00 in 0.00 W/m2
00:31 57.2 °F 33.7 °F 29.96 in East 8.0 mph 8.0 mph 41% 0.00 in 0.00 W/m2
00:36 57.3 °F 33.2 °F 29.96 in Calm     40% 0.00 in 0.00 W/m2
00:41 57.4 °F 33.3 °F 29.96 in East 3.0 mph 3.0 mph 40% 0.00 in 0.00 W/m2
00:46 57.5 °F 33.4 °F 29.96 in East 6.0 mph 6.0 mph 40% 0.00 in 0.00 W/m2
00:51 57.6 °F 33.5 °F 29.96 in East 5.0 mph 5.0 mph 40% 0.00 in 0.00 W/m2
00:56 57.6 °F 33.5 °F 29.96 in East 4.0 mph 6.0 mph 40% 0.00 in 0.00 W/m2
01:01 57.7 °F 33.6 °F 29.96 in Calm   5.0 mph 40% 0.00 in 0.00 W/m2
01:06 57.7 °F 33.6 °F 29.96 in Calm     40% 0.00 in 0.00 W/m2
01:16 57.7 °F 33.6 °F 29.96 in East 4.0 mph 5.0 mph 40% 0.00 in 0.00 W/m2
01:21 57.7 °F 32.9 °F 29.96 in East 2.0 mph 12.0 mph 39% 0.00 in 0.00 W/m2
01:26 57.8 °F 33.7 °F 29.96 in East 6.0 mph 11.0 mph 40% 0.00 in 0.00 W/m2
01:31 57.8 °F 33.7 °F 29.96 in East 4.0 mph 4.0 mph 40% 0.00 in 0.00 W/m2
01:36 57.8 °F 33.0 °F 29.96 in East 2.0 mph 5.0 mph 39% 0.00 in 0.00 W/m2
01:41 57.8 °F 34.3 °F 29.96 in Calm   7.0 mph 41% 0.00 in 0.00 W/m2
01:46 57.7 °F 34.2 °F 29.96 in East 3.0 mph 5.0 mph 41% 0.00 in 0.00 W/m2
01:51 57.7 °F 34.2 °F 29.96 in East 6.0 mph 6.0 mph 41% 0.00 in 0.00 W/m2
01:56 57.7 °F 33.6 °F 29.96 in Calm   7.0 mph 40% 0.00 in 0.00 W/m2
02:01 57.7 °F 33.6 °F 29.95 in Calm   4.0 mph 40% 0.00 in 0.00 W/m2
02:06 57.7 °F 33.6 °F 29.95 in ENE 4.0 mph 6.0 mph 40% 0.00 in 0.00 W/m2
02:11 57.7 °F 32.9 °F 29.95 in Calm     39% 0.00 in 0.00 W/m2
02:16 57.6 °F 33.5 °F 29.95 in East 1.0 mph 13.0 mph 40% 0.00 in 0.00 W/m2
02:21 57.6 °F 33.5 °F 29.95 in East 11.0 mph 11.0 mph 40% 0.00 in 0.00 W/m2
02:26 57.6 °F 32.8 °F 29.95 in East 1.0 mph 6.0 mph 39% 0.00 in 0.00 W/m2
02:31 57.6 °F 32.8 °F 29.95 in East 6.0 mph 11.0 mph 39% 0.00 in 0.00 W/m2
02:36 57.6 °F 32.8 °F 29.95 in ESE 2.0 mph 2.0 mph 39% 0.00 in 0.00 W/m2
02:41 57.6 °F 32.8 °F 29.95 in East 7.0 mph 7.0 mph 39% 0.00 in 0.00 W/m2
02:46 57.7 °F 32.9 °F 29.95 in East 4.0 mph 4.0 mph 39% 0.00 in 0.00 W/m2
02:51 57.7 °F 33.6 °F 29.95 in Calm   7.0 mph 40% 0.00 in 0.00 W/m2
02:56 57.7 °F 33.6 °F 29.95 in East 4.0 mph 7.0 mph 40% 0.00 in 0.00 W/m2
03:01 57.7 °F 32.9 °F 29.95 in East 4.0 mph 9.0 mph 39% 0.00 in 0.00 W/m2
03:06 57.7 °F 32.3 °F 29.95 in Calm   11.0 mph 38% 0.00 in 0.00 W/m2
03:11 57.6 °F 32.2 °F 29.95 in East 6.0 mph 8.0 mph 38% 0.00 in 0.00 W/m2
03:16 57.5 °F 32.8 °F 29.94 in ESE 2.0 mph 5.0 mph 39% 0.00 in 0.00 W/m2
03:22 57.4 °F 32.7 °F 29.94 in East 4.0 mph 7.0 mph 39% 0.00 in 0.00 W/m2
03:27 57.3 °F 32.6 °F 29.95 in East 6.0 mph 6.0 mph 39% 0.00 in 0.00 W/m2
03:32 57.2 °F 32.5 °F 29.94 in East 2.0 mph 8.0 mph 39% 0.00 in 0.00 W/m2
03:37 57.2 °F 32.5 °F 29.94 in East 4.0 mph 11.0 mph 39% 0.00 in 0.00 W/m2
03:42 57.1 °F 32.4 °F 29.94 in ESE 6.0 mph 9.0 mph 39% 0.00 in 0.00 W/m2
03:47 57.0 °F 32.3 °F 29.94 in East 6.0 mph 13.0 mph 39% 0.00 in 0.00 W/m2
03:52 57.0 °F 32.3 °F 29.94 in East 3.0 mph 13.0 mph 39% 0.00 in 0.00 W/m2
03:57 57.0 °F 32.3 °F 29.94 in Calm   11.0 mph 39% 0.00 in 0.00 W/m2
04:02 57.0 °F 32.3 °F 29.94 in East 4.0 mph 12.0 mph 39% 0.00 in 0.00 W/m2
04:07 57.0 °F 32.3 °F 29.95 in East 2.0 mph 8.0 mph 39% 0.00 in 0.00 W/m2
04:12 57.0 °F 32.3 °F 29.95 in East 2.0 mph 7.0 mph 39% 0.00 in 0.00 W/m2
04:17 57.0 °F 32.3 °F 29.95 in East 2.0 mph 8.0 mph 39% 0.00 in 0.00 W/m2
04:22 56.9 °F 32.2 °F 29.95 in East 4.0 mph 13.0 mph 39% 0.00 in 0.00 W/m2
04:27 56.9 °F 32.2 °F 29.95 in East 8.0 mph 8.0 mph 39% 0.00 in 0.00 W/m2
04:32 56.9 °F 32.2 °F 29.95 in Calm   9.0 mph 39% 0.00 in 0.00 W/m2
04:37 56.9 °F 32.2 °F 29.95 in East 9.0 mph 18.0 mph 39% 0.00 in 0.00 W/m2
04:42 56.9 °F 32.2 °F 29.95 in ESE 5.0 mph 11.0 mph 39% 0.00 in 0.00 W/m2
04:47 57.0 °F 32.3 °F 29.95 in East 12.0 mph 12.0 mph 39% 0.00 in 0.00 W/m2
04:52 57.0 °F 32.3 °F 29.95 in East 1.0 mph 7.0 mph 39% 0.00 in 0.00 W/m2
04:57 57.1 °F 32.4 °F 29.95 in Calm   9.0 mph 39% 0.00 in 0.00 W/m2
05:02 57.1 °F 32.4 °F 29.95 in East 7.0 mph 9.0 mph 39% 0.00 in 0.00 W/m2
05:07 57.2 °F 32.5 °F 29.95 in ESE 4.0 mph 8.0 mph 39% 0.00 in 0.00 W/m2
05:12 57.2 °F 31.8 °F 29.95 in East 8.0 mph 8.0 mph 38% 0.00 in 0.00 W/m2
05:17 57.3 °F 32.6 °F 29.95 in East 6.0 mph 9.0 mph 39% 0.00 in 0.00 W/m2
05:22 57.3 °F 32.6 °F 29.95 in ESE 1.0 mph 8.0 mph 39% 0.00 in 0.00 W/m2
05:27 57.3 °F 32.6 °F 29.95 in Calm   7.0 mph 39% 0.00 in 0.00 W/m2
05:32 57.3 °F 32.6 °F 29.95 in East 3.0 mph 7.0 mph 39% 0.00 in 0.00 W/m2
05:37 57.3 °F 32.6 °F 29.96 in East 7.0 mph 7.0 mph 39% 0.00 in 0.00 W/m2
05:42 57.3 °F 32.6 °F 29.96 in East 7.0 mph 12.0 mph 39% 0.00 in 0.00 W/m2
05:47 57.3 °F 32.6 °F 29.96 in East 6.0 mph 11.0 mph 39% 0.00 in 0.00 W/m2
05:52 57.3 °F 32.6 °F 29.96 in Calm   7.0 mph 39% 0.00 in 0.00 W/m2
05:57 57.3 °F 32.6 °F 29.96 in East 4.0 mph 8.0 mph 39% 0.00 in 0.00 W/m2
06:02 57.3 °F 32.6 °F 29.96 in East 5.0 mph 11.0 mph 39% 0.00 in 0.00 W/m2
06:07 57.3 °F 31.9 °F 29.96 in East 6.0 mph 11.0 mph 38% 0.00 in 0.00 W/m2
06:12 57.3 °F 32.6 °F 29.96 in ESE 4.0 mph 12.0 mph 39% 0.00 in 0.00 W/m2
06:17 57.3 °F 32.6 °F 29.96 in East 11.0 mph 11.0 mph 39% 0.00 in 0.00 W/m2
06:27 57.4 °F 32.7 °F 29.97 in ESE 5.0 mph 9.0 mph 39% 0.00 in 0.00 W/m2
06:32 57.4 °F 32.7 °F 29.96 in ESE 1.0 mph 9.0 mph 39% 0.00 in 0.00 W/m2
06:37 57.4 °F 32.7 °F 29.96 in ESE 7.0 mph 14.0 mph 39% 0.00 in 0.00 W/m2
06:42 57.4 °F 32.7 °F 29.97 in ESE 5.0 mph 11.0 mph 39% 0.00 in 0.00 W/m2
06:47 57.3 °F 32.6 °F 29.97 in Calm   9.0 mph 39% 0.00 in 0.00 W/m2
06:52 57.3 °F 32.6 °F 29.97 in ESE 2.0 mph 8.0 mph 39% 0.00 in 5.00 W/m2
06:57 57.3 °F 31.9 °F 29.97 in Calm   8.0 mph 38% 0.00 in 7.00 W/m2
07:02 57.2 °F 31.8 °F 29.98 in Calm   7.0 mph 38% 0.00 in 9.00 W/m2
07:07 57.2 °F 31.8 °F 29.98 in ESE 6.0 mph 7.0 mph 38% 0.00 in 12.00 W/m2
07:12 57.1 °F 32.4 °F 29.98 in Calm   11.0 mph 39% 0.00 in 14.00 W/m2
07:17 57.0 °F 32.9 °F 29.98 in ESE 2.0 mph 12.0 mph 40% 0.00 in 18.00 W/m2
07:22 56.9 °F 32.8 °F 29.98 in ESE 2.0 mph 8.0 mph 40% 0.00 in 25.00 W/m2
07:27 56.8 °F 32.8 °F 29.98 in Calm   9.0 mph 40% 0.00 in 40.00 W/m2
07:32 56.6 °F 32.6 °F 29.98 in Calm   10.0 mph 40% 0.00 in 53.00 W/m2
07:42 56.3 °F 32.9 °F 29.98 in Calm   6.0 mph 41% 0.00 in 84.00 W/m2
07:47 56.3 °F 32.9 °F 29.98 in ESE 5.0 mph 7.0 mph 41% 0.00 in 102.00 W/m2
07:52 56.2 °F 32.8 °F 29.98 in Calm   12.0 mph 41% 0.00 in 116.00 W/m2
07:58 56.2 °F 33.4 °F 29.98 in East 11.0 mph 11.0 mph 42% 0.00 in 142.00 W/m2
08:03 56.3 °F 33.5 °F 29.98 in ESE 7.0 mph 12.0 mph 42% 0.00 in 162.00 W/m2
08:08 56.3 °F 33.5 °F 29.98 in ESE 6.0 mph 8.0 mph 42% 0.00 in 183.00 W/m2
08:13 56.4 °F 34.2 °F 29.98 in ESE 6.0 mph 7.0 mph 43% 0.00 in 223.00 W/m2
08:18 56.4 °F 34.2 °F 29.98 in East 5.0 mph 11.0 mph 43% 0.00 in 190.00 W/m2
08:23 56.5 °F 34.3 °F 29.98 in Calm   7.0 mph 43% 0.00 in 220.00 W/m2
08:28 56.6 °F 35.0 °F 29.98 in ESE 1.0 mph 9.0 mph 44% 0.00 in 169.00 W/m2
08:33 56.8 °F 35.1 °F 29.97 in East 1.0 mph 8.0 mph 44% 0.00 in 135.00 W/m2
08:38 56.9 °F 35.2 °F 29.97 in ESE 6.0 mph 8.0 mph 44% 0.00 in 276.00 W/m2
08:43 57.0 °F 35.3 °F 29.97 in ESE 6.0 mph 8.0 mph 44% 0.00 in 251.00 W/m2
08:48 57.2 °F 35.5 °F 29.97 in Calm   8.0 mph 44% 0.00 in 278.00 W/m2
08:53 57.3 °F 35.6 °F 29.97 in Calm   9.0 mph 44% 0.00 in 216.00 W/m2
08:58 57.5 °F 35.2 °F 29.97 in Calm   8.0 mph 43% 0.00 in 207.00 W/m2
09:03 57.7 °F 36.0 °F 29.97 in ESE 2.0 mph 7.0 mph 44% 0.00 in 272.00 W/m2
09:08 57.8 °F 36.0 °F 29.97 in Calm   5.0 mph 44% 0.00 in 325.00 W/m2
09:13 58.0 °F 36.2 °F 29.97 in Calm   7.0 mph 44% 0.00 in 387.00 W/m2
09:18 58.2 °F 36.4 °F 29.97 in Calm   6.0 mph 44% 0.00 in 392.00 W/m2
09:23 58.4 °F 37.2 °F 29.98 in Calm   2.0 mph 45% 0.00 in 367.00 W/m2
09:28 58.7 °F 37.4 °F 29.98 in Calm   5.0 mph 45% 0.00 in 489.00 W/m2
09:33 59.0 °F 38.3 °F 29.98 in Calm     46% 0.00 in 427.00 W/m2
09:38 59.4 °F 38.6 °F 29.98 in Calm     46% 0.00 in 441.00 W/m2
09:43 59.6 °F 38.8 °F 29.98 in Calm     46% 0.00 in 557.00 W/m2
09:48 59.9 °F 38.5 °F 29.98 in Calm     45% 0.00 in 529.00 W/m2
09:53 60.2 °F 38.2 °F 29.98 in Calm     44% 0.00 in 547.00 W/m2
09:58 60.5 °F 37.9 °F 29.97 in Calm     43% 0.00 in 527.00 W/m2
10:03 60.8 °F 38.8 °F 29.97 in Calm   4.0 mph 44% 0.00 in 504.00 W/m2
10:08 61.2 °F 38.5 °F 29.98 in Calm     43% 0.00 in 499.00 W/m2
10:13 62.0 °F 39.9 °F 29.97 in Calm     44% 0.00 in 585.00 W/m2
10:19 62.5 °F 38.5 °F 29.97 in Calm     41% 0.00 in 606.00 W/m2
10:24 63.3 °F 38.0 °F 29.97 in Calm   4.0 mph 39% 0.00 in 610.00 W/m2
10:29 64.1 °F 38.0 °F 29.97 in Calm   4.0 mph 38% 0.00 in 599.00 W/m2
10:34 64.7 °F 37.8 °F 29.97 in Calm   4.0 mph 37% 0.00 in 622.00 W/m2
10:39 65.1 °F 36.8 °F 29.97 in Calm   2.0 mph 35% 0.00 in 628.00 W/m2
10:44 65.4 °F 37.1 °F 29.97 in Calm     35% 0.00 in 621.00 W/m2
10:54 65.7 °F 38.0 °F 29.97 in NNW 1.0 mph 3.0 mph 36% 0.00 in 680.00 W/m2
10:59 65.9 °F 36.8 °F 29.97 in NW 2.0 mph 5.0 mph 34% 0.00 in 670.00 W/m2
11:04 66.1 °F 36.9 °F 29.97 in Calm   3.0 mph 34% 0.00 in 573.00 W/m2
11:09 66.4 °F 36.5 °F 29.97 in Calm   4.0 mph 33% 0.00 in 696.00 W/m2
11:14 66.6 °F 35.8 °F 29.97 in Calm   2.0 mph 32% 0.00 in 703.00 W/m2
11:19 66.8 °F 36.0 °F 29.97 in NW 3.0 mph 3.0 mph 32% 0.00 in 779.00 W/m2
11:24 67.1 °F 35.5 °F 29.97 in WNW 1.0 mph 5.0 mph 31% 0.00 in 698.00 W/m2
11:29 67.2 °F 36.4 °F 29.97 in Calm   3.0 mph 32% 0.00 in 403.00 W/m2
11:34 67.5 °F 36.6 °F 29.97 in Calm   4.0 mph 32% 0.00 in 726.00 W/m2
11:39 67.8 °F 36.9 °F 29.97 in Calm   6.0 mph 32% 0.00 in 707.00 W/m2
11:44 68.1 °F 36.3 °F 29.97 in Calm   5.0 mph 31% 0.00 in 715.00 W/m2
11:50 68.4 °F 37.4 °F 29.97 in WNW 2.0 mph 6.0 mph 32% 0.00 in 761.00 W/m2
11:55 68.7 °F 37.7 °F 29.97 in Calm   4.0 mph 32% 0.00 in 742.00 W/m2
12:00 68.9 °F 37.0 °F 29.97 in Calm   5.0 mph 31% 0.00 in 696.00 W/m2
12:05 69.1 °F 37.2 °F 29.96 in West 2.0 mph 6.0 mph 31% 0.00 in 737.00 W/m2
12:10 69.3 °F 37.4 °F 29.97 in Calm   4.0 mph 31% 0.00 in 770.00 W/m2
12:15 69.6 °F 36.8 °F 29.96 in West 2.0 mph 8.0 mph 30% 0.00 in 756.00 W/m2
12:20 69.8 °F 37.0 °F 29.96 in NW 2.0 mph 6.0 mph 30% 0.00 in 745.00 W/m2
12:25 70.0 °F 36.3 °F 29.96 in Calm   3.0 mph 29% 0.00 in 759.00 W/m2
12:30 70.3 °F 37.4 °F 29.96 in West 1.0 mph 6.0 mph 30% 0.00 in 784.00 W/m2
12:35 70.5 °F 36.7 °F 29.96 in Calm   5.0 mph 29% 0.00 in 749.00 W/m2
12:40 70.7 °F 36.9 °F 29.96 in West 1.0 mph 4.0 mph 29% 0.00 in 729.00 W/m2
12:45 70.9 °F 37.1 °F 29.95 in WNW 1.0 mph 7.0 mph 29% 0.00 in 784.00 W/m2
12:50 71.1 °F 37.3 °F 29.95 in Calm   7.0 mph 29% 0.00 in 687.00 W/m2
12:55 71.3 °F 36.5 °F 29.95 in Calm   8.0 mph 28% 0.00 in 712.00 W/m2
13:00 71.5 °F 36.7 °F 29.95 in WNW 1.0 mph 8.0 mph 28% 0.00 in 705.00 W/m2
13:05 71.6 °F 36.8 °F 29.94 in Calm   6.0 mph 28% 0.00 in 758.00 W/m2
13:10 71.8 °F 37.0 °F 29.94 in Calm   7.0 mph 28% 0.00 in 751.00 W/m2
13:15 71.9 °F 37.1 °F 29.94 in WSW 4.0 mph 9.0 mph 28% 0.00 in 772.00 W/m2
13:20 72.1 °F 37.2 °F 29.94 in West 3.0 mph 9.0 mph 28% 0.00 in 745.00 W/m2
13:25 72.2 °F 37.3 °F 29.94 in West 1.0 mph 9.0 mph 28% 0.00 in 770.00 W/m2
13:30 72.4 °F 37.5 °F 29.93 in NW 1.0 mph 9.0 mph 28% 0.00 in 738.00 W/m2
13:35 72.5 °F 37.6 °F 29.93 in WNW 5.0 mph 7.0 mph 28% 0.00 in 761.00 W/m2
13:40 72.5 °F 37.6 °F 29.93 in Calm   5.0 mph 28% 0.00 in 735.00 W/m2
13:45 72.6 °F 37.7 °F 29.93 in West 1.0 mph 6.0 mph 28% 0.00 in 745.00 W/m2
13:51 72.9 °F 38.8 °F 29.93 in West 7.0 mph 9.0 mph 29% 0.00 in 738.00 W/m2
13:56 73.2 °F 38.2 °F 29.93 in Calm   7.0 mph 28% 0.00 in 719.00 W/m2
14:01 73.4 °F 38.3 °F 29.93 in Calm   3.0 mph 28% 0.00 in 726.00 W/m2
14:06 73.6 °F 38.5 °F 29.93 in Calm   10.0 mph 28% 0.00 in 728.00 W/m2
14:11 73.8 °F 37.8 °F 29.93 in Calm   11.0 mph 27% 0.00 in 715.00 W/m2
14:16 73.9 °F 37.8 °F 29.93 in Calm   10.0 mph 27% 0.00 in 707.00 W/m2
14:21 74.0 °F 37.9 °F 29.92 in West 3.0 mph 8.0 mph 27% 0.00 in 705.00 W/m2
14:26 73.9 °F 37.8 °F 29.92 in NW 3.0 mph 9.0 mph 27% 0.00 in 687.00 W/m2
14:31 73.6 °F 36.6 °F 29.92 in Calm   1.0 mph 26% 0.00 in 691.00 W/m2
14:36 73.5 °F 38.4 °F 29.92 in Calm   9.0 mph 28% 0.00 in 687.00 W/m2
14:41 73.6 °F 37.6 °F 29.92 in Calm   8.0 mph 27% 0.00 in 670.00 W/m2
14:46 73.7 °F 37.7 °F 29.92 in Calm     27% 0.00 in 650.00 W/m2
14:47 73.7 °F 37.7 °F 29.92 in West 7.0 mph 8.0 mph 27% 0.00 in 640.00 W/m2
14:52 73.7 °F 37.7 °F 29.92 in Calm   5.0 mph 27% 0.00 in 615.00 W/m2
14:57 73.5 °F 37.5 °F 29.92 in WNW 5.0 mph 13.0 mph 27% 0.00 in 599.00 W/m2
15:02 73.5 °F 38.4 °F 29.92 in Calm   10.0 mph 28% 0.00 in 548.00 W/m2
15:07 73.5 °F 38.4 °F 29.91 in Calm   10.0 mph 28% 0.00 in 598.00 W/m2
15:18 73.5 °F 38.4 °F 29.91 in Calm   8.0 mph 28% 0.00 in 591.00 W/m2
15:23 73.5 °F 38.4 °F 29.91 in Calm   12.0 mph 28% 0.00 in 568.00 W/m2
15:28 73.5 °F 38.4 °F 29.90 in Calm   7.0 mph 28% 0.00 in 568.00 W/m2
15:33 73.4 °F 38.3 °F 29.90 in West 5.0 mph 9.0 mph 28% 0.00 in 548.00 W/m2
15:38 73.4 °F 38.3 °F 29.90 in WSW 4.0 mph 10.0 mph 28% 0.00 in 512.00 W/m2
15:43 73.3 °F 38.3 °F 29.90 in Calm   5.0 mph 28% 0.00 in 548.00 W/m2
15:48 73.4 °F 38.3 °F 29.90 in West 9.0 mph 9.0 mph 28% 0.00 in 527.00 W/m2
15:53 73.4 °F 39.2 °F 29.90 in WNW 1.0 mph 9.0 mph 29% 0.00 in 512.00 W/m2
15:58 73.5 °F 40.2 °F 29.90 in Calm   5.0 mph 30% 0.00 in 482.00 W/m2
16:03 73.4 °F 41.0 °F 29.90 in Calm   6.0 mph 31% 0.00 in 476.00 W/m2
16:08 73.4 °F 41.0 °F 29.90 in Calm   7.0 mph 31% 0.00 in 462.00 W/m2
16:10 73.4 °F 41.0 °F 29.90 in Calm   7.0 mph 31% 0.00 in 461.00 W/m2
16:15 73.4 °F 41.8 °F 29.89 in West 2.0 mph 8.0 mph 32% 0.00 in 452.00 W/m2
16:20 73.3 °F 41.7 °F 29.89 in Calm   9.0 mph 32% 0.00 in 439.00 W/m2
16:25 73.3 °F 42.5 °F 29.89 in NW 3.0 mph 9.0 mph 33% 0.00 in 420.00 W/m2
16:30 73.4 °F 41.0 °F 29.89 in WNW 8.0 mph 16.0 mph 31% 0.00 in 381.00 W/m2
16:35 73.5 °F 40.2 °F 29.89 in NW 4.0 mph 13.0 mph 30% 0.00 in 385.00 W/m2
16:40 73.5 °F 40.2 °F 29.89 in NW 6.0 mph 13.0 mph 30% 0.00 in 367.00 W/m2
16:45 73.5 °F 40.2 °F 29.89 in Calm   8.0 mph 30% 0.00 in 359.00 W/m2
16:50 73.5 °F 40.2 °F 29.89 in Calm   9.0 mph 30% 0.00 in 243.00 W/m2
16:55 73.5 °F 41.0 °F 29.88 in NW 5.0 mph 8.0 mph 31% 0.00 in 343.00 W/m2
17:00 73.5 °F 40.2 °F 29.89 in NNW 3.0 mph 10.0 mph 30% 0.00 in 323.00 W/m2
17:05 73.4 °F 40.1 °F 29.89 in Calm   11.0 mph 30% 0.00 in 290.00 W/m2
17:10 73.3 °F 40.0 °F 29.89 in NW 3.0 mph 7.0 mph 30% 0.00 in 294.00 W/m2
17:15 73.2 °F 39.9 °F 29.89 in Calm   7.0 mph 30% 0.00 in 232.00 W/m2
17:20 73.0 °F 39.8 °F 29.89 in NNW 9.0 mph 13.0 mph 30% 0.00 in 181.00 W/m2
17:25 72.9 °F 39.7 °F 29.89 in Calm   12.0 mph 30% 0.00 in 239.00 W/m2
17:30 72.7 °F 40.3 °F 29.89 in Calm   13.0 mph 31% 0.00 in 221.00 W/m2
17:35 72.5 °F 41.0 °F 29.89 in Calm   11.0 mph 32% 0.00 in 204.00 W/m2
17:40 72.3 °F 40.0 °F 29.89 in Calm   9.0 mph 31% 0.00 in 183.00 W/m2
17:45 72.2 °F 39.9 °F 29.89 in NW 2.0 mph 10.0 mph 31% 0.00 in 135.00 W/m2
17:50 72.1 °F 39.8 °F 29.89 in NW 1.0 mph 11.0 mph 31% 0.00 in 137.00 W/m2
17:55 71.9 °F 39.7 °F 29.89 in Calm   11.0 mph 31% 0.00 in 116.00 W/m2
18:00 71.8 °F 40.4 °F 29.89 in Calm   8.0 mph 32% 0.00 in 109.00 W/m2
18:05 71.6 °F 40.2 °F 29.89 in Calm   8.0 mph 32% 0.00 in 90.00 W/m2
18:06 71.6 °F 40.2 °F 29.89 in Calm   8.0 mph 32% 0.00 in 90.00 W/m2
18:11 71.5 °F 40.1 °F 29.89 in NNW 9.0 mph 16.0 mph 32% 0.00 in 70.00 W/m2
18:16 71.3 °F 40.0 °F 29.89 in Calm   11.0 mph 32% 0.00 in 56.00 W/m2
18:21 71.2 °F 40.7 °F 29.88 in Calm   10.0 mph 33% 0.00 in 35.00 W/m2
18:26 70.8 °F 40.3 °F 29.88 in Calm   9.0 mph 33% 0.00 in 25.00 W/m2
18:31 70.7 °F 40.2 °F 29.89 in NW 5.0 mph 5.0 mph 33% 0.00 in 23.00 W/m2
18:36 70.5 °F 40.8 °F 29.89 in Calm     34% 0.00 in 18.00 W/m2
18:41 70.3 °F 40.6 °F 29.89 in Calm     34% 0.00 in 12.00 W/m2
18:46 70.0 °F 41.1 °F 29.89 in Calm   6.0 mph 35% 0.00 in 12.00 W/m2
18:51 69.8 °F 40.9 °F 29.89 in Calm     35% 0.00 in 9.00 W/m2
18:56 69.5 °F 41.4 °F 29.89 in Calm     36% 0.00 in 7.00 W/m2
19:01 69.3 °F 41.2 °F 29.89 in Calm     36% 0.00 in 0.00 W/m2
19:06 69.0 °F 41.0 °F 29.89 in Calm     36% 0.00 in 0.00 W/m2
19:11 68.4 °F 41.1 °F 29.89 in Calm     37% 0.00 in 0.00 W/m2
19:16 67.7 °F 40.5 °F 29.89 in Calm   1.0 mph 37% 0.00 in 0.00 W/m2
19:21 67.2 °F 40.8 °F 29.89 in Calm     38% 0.00 in 0.00 W/m2
19:26 66.8 °F 40.4 °F 29.89 in Calm     38% 0.00 in 0.00 W/m2
19:31 66.6 °F 40.9 °F 29.89 in Calm     39% 0.00 in 0.00 W/m2
19:36 66.3 °F 40.6 °F 29.89 in Calm     39% 0.00 in 0.00 W/m2
19:41 65.9 °F 40.9 °F 29.89 in Calm     40% 0.00 in 0.00 W/m2
19:46 65.6 °F 40.7 °F 29.89 in Calm     40% 0.00 in 0.00 W/m2
19:51 65.1 °F 40.2 °F 29.89 in Calm     40% 0.00 in 0.00 W/m2
19:56 64.4 °F 40.2 °F 29.90 in Calm     41% 0.00 in 0.00 W/m2
20:01 64.0 °F 40.5 °F 29.90 in Calm     42% 0.00 in 0.00 W/m2
20:06 63.6 °F 40.1 °F 29.90 in Calm     42% 0.00 in 0.00 W/m2
20:12 63.2 °F 39.8 °F 29.90 in Calm     42% 0.00 in 0.00 W/m2
20:17 63.1 °F 40.3 °F 29.90 in Calm     43% 0.00 in 0.00 W/m2
20:19 63.0 °F 40.2 °F 29.90 in Calm     43% 0.00 in 0.00 W/m2
20:22 62.9 °F 40.1 °F 29.90 in Calm     43% 0.00 in 0.00 W/m2
20:27 62.8 °F 40.0 °F 29.90 in Calm   1.0 mph 43% 0.00 in 0.00 W/m2
20:29 62.8 °F 40.0 °F 29.90 in Calm   1.0 mph 43% 0.00 in 0.00 W/m2
20:30 62.8 °F 40.0 °F 29.90 in Calm   1.0 mph 43% 0.00 in 0.00 W/m2
20:32 62.8 °F 40.0 °F 29.91 in Calm   3.0 mph 43% 0.00 in 0.00 W/m2
20:37 62.7 °F 39.9 °F 29.90 in NNW 3.0 mph 3.0 mph 43% 0.00 in 0.00 W/m2
20:42 62.7 °F 39.9 °F 29.90 in Calm   7.0 mph 43% 0.00 in 0.00 W/m2
20:53 62.7 °F 39.9 °F 29.90 in ENE 7.0 mph 10.0 mph 43% 0.00 in 0.00 W/m2
20:58 62.7 °F 39.9 °F 29.90 in ENE 1.0 mph 6.0 mph 43% 0.00 in 0.00 W/m2
21:08 62.8 °F 38.1 °F 29.90 in East 6.0 mph 6.0 mph 40% 0.00 in 0.00 W/m2
21:13 62.9 °F 38.2 °F 29.90 in Calm     40% 0.00 in 0.00 W/m2
21:18 63.0 °F 37.7 °F 29.90 in Calm     39% 0.00 in 0.00 W/m2
21:23 63.1 °F 37.8 °F 29.90 in Calm   2.0 mph 39% 0.00 in 0.00 W/m2
21:28 63.1 °F 37.8 °F 29.90 in Calm   7.0 mph 39% 0.00 in 0.00 W/m2
21:38 63.2 °F 37.9 °F 29.90 in Calm     39% 0.00 in 0.00 W/m2
21:43 63.2 °F 37.9 °F 29.90 in East 2.0 mph 4.0 mph 39% 0.00 in 0.00 W/m2
21:48 63.1 °F 37.8 °F 29.90 in Calm     39% 0.00 in 0.00 W/m2
21:53 63.1 °F 37.1 °F 29.90 in Calm   3.0 mph 38% 0.00 in 0.00 W/m2
21:58 63.1 °F 37.1 °F 29.90 in Calm   5.0 mph 38% 0.00 in 0.00 W/m2
22:03 63.0 °F 37.0 °F 29.90 in Calm     38% 0.00 in 0.00 W/m2
22:08 63.0 °F 36.3 °F 29.90 in Calm   3.0 mph 37% 0.00 in 0.00 W/m2
22:13 62.9 °F 36.2 °F 29.90 in Calm     37% 0.00 in 0.00 W/m2
22:18 62.9 °F 35.6 °F 29.90 in Calm   6.0 mph 36% 0.00 in 0.00 W/m2
22:23 62.9 °F 35.6 °F 29.91 in Calm   4.0 mph 36% 0.00 in 0.00 W/m2
22:28 62.9 °F 36.2 °F 29.90 in Calm     37% 0.00 in 0.00 W/m2
22:33 62.9 °F 36.2 °F 29.90 in Calm     37% 0.00 in 0.00 W/m2
22:38 62.9 °F 36.2 °F 29.90 in Calm     37% 0.00 in 0.00 W/m2
22:43 62.8 °F 36.2 °F 29.90 in Calm   1.0 mph 37% 0.00 in 0.00 W/m2
22:48 62.7 °F 36.1 °F 29.90 in Calm     37% 0.00 in 0.00 W/m2
22:58 62.5 °F 36.6 °F 29.90 in Calm     38% 0.00 in 0.00 W/m2
23:03 62.3 °F 36.4 °F 29.90 in ENE 3.0 mph 3.0 mph 38% 0.00 in 0.00 W/m2
23:08 62.1 °F 36.9 °F 29.90 in Calm   5.0 mph 39% 0.00 in 0.00 W/m2
23:13 61.9 °F 36.7 °F 29.89 in ENE 7.0 mph 7.0 mph 39% 0.00 in 0.00 W/m2
23:18 61.7 °F 36.5 °F 29.89 in ENE 4.0 mph 7.0 mph 39% 0.00 in 0.00 W/m2
23:23 61.6 °F 36.4 °F 29.90 in Calm     39% 0.00 in 0.00 W/m2
23:28 61.5 °F 35.7 °F 29.90 in ENE 2.0 mph 7.0 mph 38% 0.00 in 0.00 W/m2
23:33 61.5 °F 35.7 °F 29.90 in Calm     38% 0.00 in 0.00 W/m2
23:38 61.5 °F 36.3 °F 29.90 in Calm     39% 0.00 in 0.00 W/m2
23:43 61.4 °F 34.9 °F 29.90 in Calm   6.0 mph 37% 0.00 in 0.00 W/m2
23:48 61.3 °F 34.8 °F 29.90 in Calm   6.0 mph 37% 0.00 in 0.00 W/m2
23:53 61.3 °F 34.8 °F 29.90 in Calm   6.0 mph 37% 0.00 in 0.00 W/m2
23:58 61.3 °F 34.1 °F 29.90 in Calm     36% 0.00 in 0.00 W/m2
Foresthill Weather
 WU-history PHP script courtesy of   Juneau County Weather.
powered by Cumulus v1.9.3 (1059)
Ambient Weather VWS v14.00
Top Contact Website Map Copyright © 2007 - 2018 Foresthillweather.com Never base important decisions on this or any weather information obtained from the Internet